Regional Weather Roundup
Issued by NWS

Home | Current Version | Previous Version | Graphics & Text | Print | Product List | Glossary On
Versions: 1 2 3 4 5 6 7 8 9 10 11 12 13 14 15 16 17 18 19 20 21 22 23 24 25 26 27 28 29 30 31 32 33 34 35 36 37 38 39 40 41 42 43 44 45 46 47 48 49 50
000
ASUS43 KDMX 280201
RWRIA

WEATHER ROUNDUP FOR IOWA
NATIONAL WEATHER SERVICE DES MOINES IA
900 PM CDT TUE JUN 27 2017

NOTE: "FAIR" INDICATES FEW OR NO CLOUDS BELOW 12,000 FEET WITH NO
SIGNIFICANT WEATHER AND/OR OBSTRUCTIONS TO VISIBILITY.

* - THESE STATIONS ARE NOT NWS STATIONS...THUS NOT UNDER NWS
QUALITY CONTROL.  THEY ALSO DO NOT REPORT WEATHER SUCH
AS PRECIPITATION OR FOG.

IAZ001>003-012>014-020>022-031>034-043>046-280300-
   NORTHWEST IOWA

CITY           SKY/WX    TMP DP  RH WIND       PRES   REMARKS
CARROLL *      MOCLDY    73  61  64 S14       29.83F
CHEROKEE *     CLOUDY    74  60  61 S15       29.78R
DENISON *      CLOUDY    73  63  68 S14G21    29.82F
LE MARS *      CLOUDY    75  63  64 S16G23    29.74F
ORANGE CITY *  CLOUDY    75  63  64 S16G24    29.75F
SHELDON *      CLOUDY    75  61  60 S18G25    29.74S
SIOUX CITY     CLOUDY    76  64  66 S21G26    29.74S
SPENCER        CLOUDY    74  57  55 S16G23    29.78F
STORM LAKE *   CLOUDY    73  59  60 S17G26    29.79F
$$

IAZ055>058-069>071-079>083-090>094-280300-
   SOUTHWEST IOWA

CITY           SKY/WX    TMP DP  RH WIND       PRES   REMARKS
ATLANTIC *     PTCLDY    73  63  68 S9G15     29.83F
AUDUBON *      PTCLDY    73  63  68 S10G20    29.85F
CLARINDA *     CLEAR     75  64  69 S9G15     29.86F
COUNCIL BLFS * CLOUDY    75  66  73 SE15G23   29.80S
CRESTON *      CLOUDY    72  61  68 SE13G18   29.89F
HARLAN  *      CLOUDY    73  63  68 SE13G18   29.85F
LAMONI         CLOUDY    73  60  63 SE7       29.90F
RED OAK *      PTCLDY    73  64  73 SE9G16    29.83S
SHENANDOAH *   MOCLDY    75  66  73 SE9       29.83S
$$

IAZ047>049-059>061-072>074-084-280300-
   CENTRAL IOWA

CITY           SKY/WX    TMP DP  RH WIND       PRES   REMARKS
AMES           MOCLDY    71  56  58 SE12      29.87F
ANKENY *       MOCLDY    72  55  56 SE10      29.89S
BOONE *        CLOUDY    72  55  56 SE8G15    29.86F
CHARITON *     MOCLDY    72  55  56 SE10      29.90F
DES MOINES     PTCLDY    74  56  53 SE12      29.88F
GRINNELL*      PTCLDY    69  51  54 SE8       29.93S
KNOXVILLE *    MOCLDY    72  55  56 SE8       29.89F
MARSHALLTOWN   MOCLDY    71  51  49 SE12      29.89F
NEWTON *       PTCLDY    68  52  56 SE8       29.91S
PELLA *        MOCLDY    71  53  53 SE6       29.92S
PERRY *        CLOUDY    74  56  51 S12       29.86S
$$

IAZ004>006-015-016-023>025-035-036-280300-
   NORTH CENTRAL IOWA

CITY           SKY/WX    TMP DP  RH WIND       PRES   REMARKS
ALGONA *       CLEAR     72  52  49 SE15      29.83F
CLARION *        N/A     70  52  52 S14G21    29.86S
ESTHERVILLE    CLOUDY    69  52  54 SE13      29.80F
FORT DODGE *   PTCLDY    72  52  49 SE7       29.86S
MASON CITY     CLEAR     68  46  45 S9        29.89F
FOREST CITY *    N/A     70  37  30 S9        29.87R
WEBSTER CITY * CLEAR     70  54  56 SE12G18   29.85S
IOWA FALLS *     N/A     70  51  50 SE9       29.90S
$$

IAZ007>011-017>019-026>030-037>042-050>054-066-280300-
   NORTHEAST IOWA

CITY           SKY/WX    TMP DP  RH WIND       PRES   REMARKS
CEDAR RAPIDS   MOCLDY    67  50  54 S7        29.93F
CHARLES CITY * MOCLDY    66  46  48 SE7       29.90S
CLINTON *      PTCLDY    65  49  56 SE8       29.98F
DECORAH *      CLOUDY    64  50  59 SE7       29.91F
DUBUQUE        MOCLDY    63  49  60 S9        29.97F
MONTICELLO *   CLEAR     64  48  55 SE6       29.95F
OELWEIN *      PTCLDY    66  46  48 SE8       29.93S
WATERLOO       PTCLDY    69  46  43 S10       29.90S
$$

IAZ064-065-067-068-078-280300-
   EAST CENTRAL IOWA

CITY           SKY/WX    TMP DP  RH WIND       PRES   REMARKS
IOWA CITY      MOCLDY    68  50  52 SE7       29.96F
MT. PLEASANT * CLEAR     66  50  57 SE8       29.96F
MUSCATINE *    PTCLDY    66  52  59 SE6       29.96F
QUAD CITIES    PTCLDY    66  50  56 SE8       29.97F
$$

IAZ062-063-075>077-085>089-095>099-280300-
   SOUTHEAST IOWA

CITY           SKY/WX    TMP DP  RH WIND       PRES   REMARKS
BURLINGTON     CLEAR     67  53  61 SE6       29.97F
FAIRFIELD *    CLEAR     68  50  52 SE9       29.94F
FORT MADISON * CLEAR     70  52  52 SE5       29.98F
KEOKUK *       CLEAR     68  52  56 SE6       29.97S
OSKALOOSA *      N/A     68  51  54 SE7       29.93S
OTTUMWA        CLEAR     71  51  49 SE8       29.93F
WASHINGTON *   CLEAR     68  50  52 S8        29.96F
$$

ABBREVIATIONS USED IN REMARKS
   TC - TEMPERATURES IN CELSIUS
  WCI - WIND CHILL INDEX
   HX - HEAT INDEX
  VSB - VISIBILITY
$$





USA.gov is the U.S. government's official web portal to all federal, state and local government web resources and services.